Location: *
(50.2903°S, 172.5375°W)
Time: 00:57:13
(UTC+00:00)

Resurs 1-4 Rocket - Pass Details

Date: 25 February 2020
Orbit: 800 x 813 km, 98.6° (Epoch: 28 March)

Event Time Altitude Azimuth Distance (km) Brightness Sun altitude
Exits shadow 11:13:57 37° 117° (ESE) 1,263 3.2 -30.2°
Drops below altitude 10° 11:18:48 10° 181° (S) 2,422 5.5 -30.3°
Sets 11:21:18 0° 189° (S) 3,358 6.5 -30.3°
